sat.trackr.live / text

‹ back to catalog

STARLINK-3955

NORAD 52561 · 2022-051AE

PAYLOAD ACTIVE UNKNOWN

§ Identity

Operator
Country
US
Launch date
2022-05-13
Launch site
AFWTR
Launch vehicle
Mass (kg)
RCS (m²)

Purposes: comms

External: N2YO · Heavens-Above · Gunter

§ Orbital elements

Epoch: 2026-05-24T09:49:10.336224Z

Period
95.44 min
Inclination
53.2142°
Eccentricity
0.0001102
Mean motion
15.08838548 rev/d
Perigee alt
539.0 km
Apogee alt
540.5 km
Semi-major
6,917.9 km
B*
3.8304e-5
RAAN
154.2038°
Arg perigee
72.3518°
Mean anomaly
287.7595°
Rev number
22,280

§ Raw data

STARLINK-39551 52561U 22051AE  26144.40914741  .00000322  00000+0  38304-4 0  99942 52561  53.2142 154.2038 0001102  72.3518 287.7595 15.08838548222808

JSON: /api/v1/satellites/52561 · /tle

For live sub-satellite position, see the globe view (requires WebGL).

§ Visibility from observer

Set your observer location to see the next 7 days of passes ≥ 10°. The values pass through the URL so the page stays shareable.

No JS? Fill the form by hand. The geolocation button needs JavaScript.